Weather Roundup
Issued by NWS Springfield, MO

Home | Current Version | Previous Version | Text Only | Print | Product List | Glossary On
Versions: 1 2 3 4 5 6 7 8 9 10 11 12 13 14 15 16 17 18 19 20 21 22 23 24 25 26 27 28 29 30 31 32 33 34 35 36 37 38 39 40 41 42 43 44 45 46 47 48 49 50
000
NZUS99 KSGF 301707
HRRSGF

HOURLY WEATHER
NATIONAL WEATHER SERVICE SPRINGFIELD MO
1200 PM CDT SAT AUG 30 2014

......SGF CWA......

CITY           SKY/WX    TMP DP  RH WIND       PRES   REMARKS
SPRINGFIELD    MOSUNNY   83  67  58 SW10      29.98S
JOPLIN         PTSUNNY   85  69  58 SW8       29.97S
WEST PLAINS    CLOUDY    75  70  84 SW7       30.04F
ROLLA          PTSUNNY   81  69  67 S12       29.97F
OSAGE BEACH    PTSUNNY   82  70  65 W6        29.96S
BRANSON        PTSUNNY   84  68  58 SW5       30.02S

......SURROUNDING SGF CWA......

CITY           SKY/WX    TMP DP  RH WIND       PRES   REMARKS
CHANUTE        SUNNY     86  67  52 VRB3      29.95F
PARSONS        MOSUNNY   87  68  52 VRB3      29.96F HX  90
COFFEYVILLE    SUNNY     86  68  54 W5        29.95S
EMPORIA        SUNNY     85  62  46 VRB3      29.96S
GROVE OK       MOSUNNY   88  70  55 W7        29.97F HX  92
ROGERS AR      MOSUNNY   82  70  66 S10G17    30.02R
SILOAM SPRINGS CLOUDY    81  66  61 SW8       30.01S
HARRISON AR    CLOUDY    81  67  62 SW9       30.01F
NEAR YELLVILLE PTSUNNY   79  68  69 S3        30.01F

......KANSAS AND MISSOURI......

CITY           SKY/WX    TMP DP  RH WIND       PRES   REMARKS
KANSAS CTY INT MOSUNNY   80  67  64 VRB5      29.95R
DOWNTOWN KC    SUNNY     83  67  58 N3        29.93S
COLUMBIA       MOSUNNY   84  71  65 SW5       29.95R
SEDALIA        MOSUNNY   84  70  62 S8        29.95S
ST JOSEPH      SUNNY     80  70  71 VRB3      29.94S
ST LOUIS       CLOUDY    80  71  74 S12       29.98R
SPIRIT OF STL  LGT RAIN  78  72  81 S7        29.95S
KIRKSVILLE     MOSUNNY   80  67  64 W6        29.94R
WICHITA        MOSUNNY   88  63  43 VRB5      29.96F
TOPEKA         SUNNY     83  69  62 CALM      29.95S
OLATHE         SUNNY     81  66  60 NW7       29.95S

......TENNESSEE......

CITY           SKY/WX    TMP DP  RH WIND       PRES   REMARKS
MEMPHIS        LGT RAIN  80  73  79 S5        30.05S
NASHVILLE      CLOUDY    81  69  67 CALM      30.10S

......ARKANSAS.......

CITY           SKY/WX    TMP DP  RH WIND       PRES   REMARKS
FAYETTEVILLE   PTSUNNY   74  70  87 S7        30.02R
FT SMITH       PTSUNNY   85  71  63 CALM      29.98S HX  90
LITTLE ROCK    PTSUNNY   82  70  66 S7        30.02S

......OKLAHOMA.......

CITY           SKY/WX    TMP DP  RH WIND       PRES   REMARKS
TULSA          MOSUNNY   89  69  51 CALM      29.93F HX  93
PONCA CITY     SUNNY     85  69  58 N5        29.95F
MCALESTER      MOSUNNY   85  72  65 VRB5      29.98S HX  91
OKLAHOMA CITY  MOSUNNY   90  63  40 CALM      29.97S HX  91

......IOWA............

CITY           SKY/WX    TMP DP  RH WIND       PRES   REMARKS
DES MOINES     PTSUNNY   78  68  71 W9        29.90S
QUAD CITIES    CLOUDY    79  68  69 W8        29.87S

......ILLINOIS........

CITY           SKY/WX    TMP DP  RH WIND       PRES   REMARKS
QUINCY         PTSUNNY   80  70  71 SW9       29.92S
CHICAGO        PTSUNNY   79  66  64 SW18G26   29.85F




USA.gov is the U.S. government's official web portal to all federal, state and local government web resources and services.